Meteo Giornale » Osservazioni meteo Italia » Roma Fiumicino

ore: 17:50 - Osservazioni Meteo Roma Fiumicino
Lat. 41° 48' N Lon. 12° 14' E Alt. 2 metri s.l.m.

sereno Europe/Rome

22 °C

Sereno

Temp. 24 Ore

16 °C

26 °C

Ovest

7.4 Km/h

Dew point 18 °C

Umidità 78 %

Visibilità  10 Km

Il sole sorge alle ore 07:25

Il sole tramonta alle ore 18:26

Data e Ora Cielo e Fenomeni T °C DP °C Um. % Pres. hPa Vis. km Vento km/h
Oggi h: 17:50 sereno Sereno 22 18 78 1011 10 O 7.4
Oggi h: 17:20 sereno Sereno 23 17 68 1011 10 O 11.1
Oggi h: 16:50 sereno Sereno 24 17 64 1011 10 O/SO 13
Oggi h: 16:20 sereno Sereno 24 16 60 1011 10 O 9.3
Oggi h: 15:50 sereno Sereno 24 16 60 1012 10 O/SO 16.7
Oggi h: 15:20 poco_nuvoloso Poco Nuvoloso 24 15 57 1011 10 O 16.7
Oggi h: 13:50 sereno Sereno 25 15 53 1012 10 O 9.3
Oggi h: 13:20 sereno Sereno 26 15 50 1012 10 N 5.5
Oggi h: 12:50 sereno Sereno 25 14 50 1013 10 N 3.7
Oggi h: 12:20 sereno Sereno 25 15 53 1013 10 N 3.7
Oggi h: 11:50 sereno Sereno 24 15 57 1013 10 N 3.7
Oggi h: 11:20 sereno Sereno 23 15 60 1013 10 E 7.4
Oggi h: 10:50 sereno Sereno 23 16 64 1013 10 E/NE 9.3
Oggi h: 10:20 sereno Sereno 21 15 68 1013 10 E/NE 11.1
Oggi h: 09:50 sereno Sereno 21 15 68 1013 10 NE 13
Oggi h: 09:20 sereno Sereno 19 15 77 1013 10 NE 13
Oggi h: 08:50 sereno Sereno 18 15 82 1013 10 NE 11.1
Oggi h: 08:20 sereno Sereno 17 15 88 1012 10 N 5.5
Oggi h: 07:50 sereno Sereno 17 15 88 1012 10 N 5.5
Oggi h: 07:20 sereno Sereno 16 14 87 1012 10 NE 9.3
Oggi h: 06:50 sereno Sereno 17 15 88 1012 10 NE 13
Oggi h: 06:20 sereno Sereno 17 15 88 1012 10 NE 13
Oggi h: 05:50 sereno Sereno 17 15 88 1012 10 NE 9.3
Oggi h: 05:20 sereno Sereno 17 15 88 1012 10 E/NE 11.1
Oggi h: 04:50 sereno Sereno 17 16 93 1012 10 NE 9.3
Oggi h: 04:20 sereno Sereno 17 16 93 1013 10 NE 13
Oggi h: 03:50 sereno Sereno 17 16 93 1013 10 N/NE 7.4
Oggi h: 03:20 sereno Sereno 17 16 93 1013 10 N 3.7
Oggi h: 02:50 sereno Sereno 18 16 88 1013 10 N 5.5
Oggi h: 02:20 sereno Sereno 17 16 93 1014 10 E/NE 11.1
Oggi h: 01:50 sereno Sereno 18 16 88 1014 10 N 5.5
Oggi h: 01:20 sereno Sereno 18 16 88 1014 10 NE 7.4
Oggi h: 00:50 sereno Sereno 17 16 93 1014 10 N 3.7
Oggi h: 00:20 sereno Sereno 18 16 88 1014 10 N 5.5
Ieri h: 23:50 sereno Sereno 18 16 88 1014 10 N 5.5
Ieri h: 23:20 sereno Sereno 18 16 88 1015 10 E 9.3
Ieri h: 22:50 sereno Sereno 18 17 93 1015 10 N 5.5
Ieri h: 22:20 poco_nuvoloso Poco Nuvoloso 19 17 88 1015 10 E/NE 9.3
Ieri h: 21:50 sereno Sereno 19 17 88 1015 10 E/NE 7.4
Ieri h: 21:20 sereno Sereno 20 17 82 1015 10 NE 7.4
Ieri h: 20:50 sereno Sereno 20 17 82 1015 10 N 5.5
Ieri h: 20:20 sereno Sereno 19 17 88 1015 10 N 5.5
Ieri h: 19:50 sereno Sereno 20 17 82 1015 10 N 5.5
Ieri h: 19:20 sereno Sereno 20 18 88 1014 10 N 3.7